Kincheloe, MI

5:23 PM EDT on August 23, 2016 (GMT -0400)
Chippewa County International

Weather History for KCIU - February, 2014

Change the Weather History Date:

Thursday, February 27, 2014

  Actual Average Record
Temperature  
Mean Temperature -8 °F -  
Max Temperature 0 °F 32 °F 43 °F (1979)
Min Temperature -16 °F 8 °F -16 °F (2014)
Degree Days  
Heating Degree Days 72    
Moisture  
Dew Point -12 °F    
Average Humidity 77    
Maximum Humidity 92    
Minimum Humidity 55    
Precipitation  
Precipitation 0.00 in - - ()
Sea Level Pressure  
Sea Level Pressure 29.79 in    
Wind  
Wind Speed 16 mph (WNW)    
Max Wind Speed 31 mph    
Max Gust Speed 43 mph    
Visibility 6 miles    
Events      
Averages and records for this station are not official NWS values.
T = Trace of Precipitation, MM = Missing Value Source: NWS Daily Summary

Daily Weather History Graph

Daily Weather History Graph

Search for Another Location

Airport or City:

Trip Planner

Search our weather history database for the weather conditions in past years. The results will help you decide how hot, cold, wet, or windy it might be!

Date:

Astronomy

Feb. 27, 2014 Rise Set
Actual Time 7:20 AM EST 6:21 PM EST
Civil Twilight 6:50 AM EST 6:51 PM EST
Nautical Twilight 6:15 AM EST 7:26 PM EST
Astronomical Twilight 5:40 AM EST 8:01 PM EST
Moon 5:56 AM EST (2/27) 4:42 PM EST (2/27)
Length of Visible Light 12h 01m
Length of Day
11h 00m
Waning Crescent, 4% of the Moon is Illuminated
Feb 27
Waning Crescent
Mar 1
New
Mar 8
First Quarter
Mar 16
Full
Mar 23
Last Quarter

Hourly Weather History & Observations

Time (EST) Temp. Windchill Dew Point Humidity Pressure Visibility Wind Dir Wind Speed Gust Speed Precip Events Conditions
12:15 AM 1.4 °F -13.5 °F -2.2 °F 85% 29.42 in 10.0 mi WNW 9.2 mph - N/A   Clear
12:35 AM -0.4 °F -18.4 °F -2.2 °F 92% 29.42 in 10.0 mi NW 12.7 mph 17.3 mph N/A   Clear
12:55 AM -0.4 °F -16.7 °F -2.2 °F 92% 29.43 in 8.0 mi WNW 10.4 mph - N/A   Partly Cloudy
1:15 AM -0.4 °F -17.6 °F -4.0 °F 85% 29.44 in 10.0 mi WNW 11.5 mph - N/A   Clear
1:35 AM -0.4 °F -19.2 °F -5.8 °F 78% 29.44 in 10.0 mi WNW 13.8 mph - N/A   Mostly Cloudy
1:55 AM -2.2 °F -18.9 °F -7.6 °F 78% 29.44 in 10.0 mi WNW 10.4 mph - N/A   Mostly Cloudy
2:15 AM -2.2 °F -19.9 °F -7.6 °F 78% 29.45 in 10.0 mi WNW 11.5 mph - N/A   Mostly Cloudy
2:35 AM -2.2 °F -21.5 °F -7.6 °F 78% 29.44 in 10.0 mi WNW 13.8 mph 20.7 mph N/A   Overcast
2:55 AM -2.2 °F -21.5 °F -9.4 °F 71% 29.44 in 10.0 mi WNW 13.8 mph - N/A   Overcast
3:15 AM -4.0 °F -23.0 °F -9.4 °F 78% 29.45 in 10.0 mi WNW 12.7 mph - N/A   Scattered Clouds
3:35 AM -5.8 °F -26.0 °F -9.4 °F 84% 29.46 in 10.0 mi West 13.8 mph - N/A   Clear
3:55 AM -5.8 °F -26.0 °F -9.4 °F 84% 29.45 in 10.0 mi West 13.8 mph - N/A   Clear
4:15 AM -5.8 °F -23.4 °F -9.4 °F 84% 29.46 in 10.0 mi West 10.4 mph - N/A   Mostly Cloudy
4:35 AM -5.8 °F -25.2 °F -9.4 °F 84% 29.46 in 7.0 mi West 12.7 mph - N/A   Overcast
4:55 AM -5.8 °F -24.4 °F -7.6 °F 92% 29.46 in 2.5 mi WSW 11.5 mph - N/A   Overcast
5:15 AM -5.8 °F -26.8 °F -7.6 °F 92% 29.46 in 2.0 mi WSW 15.0 mph 20.7 mph N/A   Overcast
5:35 AM -4.0 °F -23.7 °F -5.8 °F 92% 29.47 in 1.2 mi West 13.8 mph 21.9 mph N/A   Overcast
5:55 AM -2.2 °F -22.9 °F -5.8 °F 85% 29.48 in 1.2 mi NW 16.1 mph 23.0 mph N/A   Overcast
6:15 AM -2.2 °F -24.7 °F -5.8 °F 85% 29.49 in 2.0 mi NW 19.6 mph 33.4 mph N/A   Overcast
6:35 AM -2.2 °F -26.7 °F -4.0 °F 92% 29.51 in 0.8 mi NW 24.2 mph 32.2 mph N/A   Overcast
6:55 AM -2.2 °F -28.4 °F -5.8 °F 85% 29.53 in 1.2 mi NW 28.8 mph 38.0 mph N/A   Overcast
7:15 AM -4.0 °F -29.1 °F -7.6 °F 85% 29.55 in 1.2 mi NW 24.2 mph 32.2 mph N/A   Overcast
7:35 AM -4.0 °F -30.4 °F -7.6 °F 85% 29.58 in 0.8 mi NW 27.6 mph 39.1 mph N/A   Overcast
7:55 AM -5.8 °F -32.9 °F -7.6 °F 92% 29.58 in 1.0 mi NW 27.6 mph 36.8 mph N/A   Overcast
8:15 AM -5.8 °F -33.7 °F -9.4 °F 84% 29.60 in 0.5 mi NW 29.9 mph 35.7 mph N/A   Overcast
8:35 AM -5.8 °F -33.3 °F -9.4 °F 84% 29.63 in 1.0 mi NW 28.8 mph 38.0 mph N/A   Overcast
8:55 AM -5.8 °F -31.5 °F -9.4 °F 84% 29.66 in 0.5 mi NW 24.2 mph 40.3 mph N/A   Overcast
9:15 AM -5.8 °F -32.9 °F -9.4 °F 84% 29.67 in 0.8 mi NW 27.6 mph 34.5 mph N/A   Overcast
9:35 AM -5.8 °F -29.4 °F -9.4 °F 84% 29.71 in 0.5 mi NW 19.6 mph 42.6 mph N/A   Overcast
9:55 AM -5.8 °F -34.1 °F -9.4 °F 84% 29.70 in 0.8 mi NW 31.1 mph 39.1 mph N/A   Overcast
10:15 AM -5.8 °F -33.7 °F -11.2 °F 77% 29.72 in 0.8 mi NW 29.9 mph 42.6 mph N/A   Overcast
10:35 AM -4.0 °F -31.3 °F -9.4 °F 78% 29.74 in 1.0 mi NW 29.9 mph 35.7 mph N/A   Overcast
10:55 AM -5.8 °F -32.0 °F -11.2 °F 77% 29.76 in 1.0 mi NW 25.3 mph 31.1 mph N/A   Overcast
11:15 AM -5.8 °F -31.5 °F -11.2 °F 77% 29.79 in 0.8 mi NW 24.2 mph 36.8 mph N/A   Overcast
11:35 AM -5.8 °F -31.5 °F -9.4 °F 84% 29.80 in 0.5 mi NW 24.2 mph 31.1 mph N/A   Overcast
11:55 AM -4.0 °F -30.0 °F -9.4 °F 78% 29.81 in 1.2 mi NW 26.5 mph 35.7 mph N/A   Overcast
12:15 PM -4.0 °F -30.0 °F -11.2 °F 71% 29.82 in 1.2 mi NW 26.5 mph 36.8 mph N/A   Overcast
12:35 PM -4.0 °F -29.1 °F -11.2 °F 71% 29.84 in 1.0 mi WNW 24.2 mph 36.8 mph N/A   Overcast
12:55 PM -2.2 °F -28.0 °F -11.2 °F 66% 29.84 in 1.2 mi NW 27.6 mph 35.7 mph N/A   Overcast
1:15 PM -2.2 °F -26.7 °F -11.2 °F 66% 29.86 in 1.8 mi WNW 24.2 mph 34.5 mph N/A   Overcast
1:35 PM -2.2 °F -28.0 °F -11.2 °F 66% 29.86 in 2.0 mi NW 27.6 mph 34.5 mph N/A   Mostly Cloudy
1:55 PM -2.2 °F -26.7 °F -11.2 °F 66% 29.89 in 5.0 mi NW 24.2 mph 32.2 mph N/A   Partly Cloudy
2:15 PM -2.2 °F -26.2 °F -9.4 °F 71% 29.89 in 3.0 mi NW 23.0 mph 31.1 mph N/A   Mostly Cloudy
2:35 PM -0.4 °F -24.3 °F -9.4 °F 66% 29.91 in 1.8 mi NW 24.2 mph 32.2 mph N/A   Overcast
2:55 PM -2.2 °F -24.7 °F -11.2 °F 66% 29.93 in 6.0 mi WNW 19.6 mph 28.8 mph N/A   Mostly Cloudy
3:15 PM -0.4 °F -24.7 °F -11.2 °F 60% 29.95 in 5.0 mi WNW 25.3 mph 31.1 mph N/A   Overcast
3:35 PM -2.2 °F -24.7 °F -13.0 °F 60% 29.97 in 7.0 mi WNW 19.6 mph 27.6 mph N/A   Mostly Cloudy
3:55 PM -2.2 °F -25.7 °F -13.0 °F 60% 29.96 in 6.0 mi NW 21.9 mph 28.8 mph N/A   Mostly Cloudy
4:15 PM -2.2 °F -24.7 °F -14.8 °F 55% 29.98 in 5.0 mi NW 19.6 mph 29.9 mph N/A   Partly Cloudy
4:35 PM -2.2 °F -25.2 °F -14.8 °F 55% 29.99 in 9.0 mi NW 20.7 mph 25.3 mph N/A   Clear
4:55 PM -4.0 °F -27.6 °F -14.8 °F 60% 30.00 in 9.0 mi WNW 20.7 mph 24.2 mph N/A   Clear
5:15 PM -4.0 °F -25.2 °F -16.6 °F 55% 30.02 in 10.0 mi NW 16.1 mph 23.0 mph N/A   Clear
5:35 PM -5.8 °F -30.5 °F -14.8 °F 65% 30.02 in 10.0 mi WNW 21.9 mph 25.3 mph N/A   Clear
5:55 PM -5.8 °F -25.2 °F -16.6 °F 60% 30.04 in 10.0 mi NW 12.7 mph - N/A   Clear
6:15 PM -5.8 °F -26.8 °F -16.6 °F 60% 30.06 in 10.0 mi WNW 15.0 mph 18.4 mph N/A   Clear
6:35 PM -7.6 °F -27.5 °F -16.6 °F 65% 30.07 in 10.0 mi WNW 12.7 mph - N/A   Clear
6:55 PM -9.4 °F -27.9 °F -16.6 °F 71% 30.09 in 10.0 mi West 10.4 mph - N/A   Clear
7:15 PM -9.4 °F -25.6 °F -16.6 °F 71% 30.10 in 10.0 mi West 8.1 mph - N/A   Clear
7:35 PM -9.4 °F -28.9 °F -16.6 °F 71% 30.10 in 10.0 mi West 11.5 mph - N/A   Clear
7:55 PM -11.2 °F -30.1 °F -18.4 °F 70% 30.11 in 10.0 mi WNW 10.4 mph - N/A   Clear
8:15 PM -11.2 °F -24.8 °F -18.4 °F 70% 30.11 in 10.0 mi WNW 5.8 mph - N/A   Clear
8:35 PM -11.2 °F -26.4 °F -18.4 °F 70% 30.11 in 10.0 mi WNW 6.9 mph - N/A   Clear
8:55 PM -13.0 °F -28.6 °F -18.4 °F 77% 30.12 in 10.0 mi WNW 6.9 mph - N/A   Clear
9:15 PM -13.0 °F -25.1 °F -18.4 °F 77% 30.12 in 10.0 mi West 4.6 mph - N/A   Clear
9:35 PM -14.8 °F -24.8 °F -18.4 °F 84% 30.13 in 10.0 mi WNW 3.5 mph - N/A   Clear
9:55 PM -14.8 °F -24.8 °F -18.4 °F 84% 30.13 in 10.0 mi West 3.5 mph - N/A   Clear
10:15 PM -14.8 °F -24.8 °F -20.2 °F 77% 30.13 in 10.0 mi WSW 3.5 mph - N/A   Clear
10:35 PM -14.8 °F -24.8 °F -18.4 °F 84% 30.14 in 10.0 mi SW 3.5 mph - N/A   Clear
10:55 PM -14.8 °F -29.1 °F -20.2 °F 77% 30.14 in 10.0 mi West 5.8 mph - N/A   Clear
11:15 PM -16.6 °F -31.3 °F -20.2 °F 84% 30.14 in 10.0 mi West 5.8 mph - N/A   Clear
11:35 PM -16.6 °F -29.3 °F -18.4 °F 92% 30.15 in 10.0 mi West 4.6 mph - N/A   Clear
11:55 PM -16.6 °F -29.3 °F -20.2 °F 84% 30.15 in 10.0 mi WSW 4.6 mph - N/A   Clear